Torna al catalogo

TOM-2

AttivoSSO
NORAD 69914·PAYLOAD·🇪🇸 Spain

Lanciato Jul 7, 2026 da Vandenberg Space Force Base

Loading…

Prossimi Passaggi (prossime 24 ore)

TLE

AggiornatoSource: Space-Track

Epoca: Sep 13, 2026, 16:05 UTC

1 69914U 26156AX  26256.67027674  .00001015  00000-0  10869-3 0  9993
2 69914  97.7482 155.8990 0001408 239.5760 120.5319 14.90844174 10183

Traccia TOM-2 in tempo reale con AllMySat

Download on the App Store